GFSNE_sfc_rhum_021.txt.gz
RH
90 90 90 86 87 85 77 69 71 64 46 38 35 35 37 37 44 46 44 54 77 76 72 68 64 71 72 73 77 89 84 74 73 76 80 88 93 97
78 82 80 70 66 65 60 58 52 50 46 33 32 36 39 33 39 46 45 63 62 72 72 74 81 75 71 73 74 77 82 91 80 76 77 75 84 90
62 60 58 56 52 49 48 46 45 46 51 42 38 40 46 46 42 43 45 46 46 69 80 83 79 77 75 74 73 79 82 83 91 83 82 75 76 86
49 50 48 38 49 51 51 53 52 49 51 54 44 44 47 47 48 49 41 34 39 52 78 76 72 70 72 74 75 80 88 91 96 91 88 86 79 75
51 54 54 57 55 51 51 50 47 41 47 50 48 44 44 43 46 47 49 49 40 54 65 70 72 72 72 75 79 79 88 90 96 96 93 93 92 89
55 54 54 55 54 52 49 50 48 51 51 52 51 50 50 49 50 54 56 55 57 46 53 60 65 66 72 73 76 81 84 89 92 97 94 99 100 99
54 52 54 56 65 63 54 54 55 60 66 70 68 58 56 57 63 57 58 56 59 58 60 61 60 59 59 69 70 74 79 89 92 95 97 90 98 98
58 54 53 62 60 69 74 73 72 76 76 75 68 67 58 55 56 63 72 74 74 62 68 71 64 66 60 59 67 87 92 89 90 94 95 92 93 97
60 59 54 50 64 61 69 75 80 81 80 72 78 68 64 59 59 69 73 72 66 56 68 78 70 74 67 69 80 87 87 92 91 92 95 94 97 98
63 61 64 69 70 73 75 79 70 68 70 66 70 66 62 58 59 60 68 72 70 60 66 91 78 83 73 67 72 72 78 87 91 94 94 94 94 93
66 66 66 72 74 83 88 94 79 69 64 76 78 79 78 78 75 79 91 89 89 71 72 84 78 78 73 82 85 76 82 86 84 91 94 94 92 92
70 65 72 76 86 89 97 91 89 71 65 66 65 66 78 77 82 96 90 89 78 72 62 71 62 58 75 77 77 83 86 82 84 87 92 90 92 92
73 70 76 88 93 94 75 84 88 83 82 80 75 71 78 77 74 77 81 87 85 76 51 66 59 59 73 67 68 74 82 92 93 92 90 88 86 88
85 82 90 86 75 75 79 85 85 87 89 90 89 84 83 79 72 74 79 77 74 72 60 84 72 63 74 73 65 71 83 91 94 100 100 94 90 90
91 91 90 82 76 76 78 83 84 84 87 89 84 78 73 75 80 88 94 88 98 98 88 98 82 71 79 79 70 74 80 95 95 100 100 93 90 91
89 88 90 81 73 74 74 78 84 87 88 86 86 81 80 80 80 77 84 82 89 87 99 100 99 97 94 82 68 78 87 93 90 95 96 98 88 85
93 90 86 78 73 72 74 74 76 77 81 84 86 83 80 78 77 77 80 81 87 77 82 94 100 100 96 98 91 72 71 81 78 84 99 86 86 87
87 89 92 90 85 78 81 79 77 79 80 81 85 85 86 87 84 85 85 81 79 74 76 80 88 95 98 99 95 77 72 73 74 89 92 92 82 80
89 89 92 92 88 78 78 78 82 83 82 80 84 87 88 82 85 86 88 87 84 78 78 88 92 91 86 85 88 92 90 80 86 91 89 89 85 77
86 88 90 91 87 80 78 79 80 82 82 83 86 88 90 87 83 84 84 90 86 80 76 74 84 85 88 88 92 94 92 97 94 94 91 88 84 91
86 85 89 87 88 86 90 89 90 89 88 89 88 87 91 87 83 81 84 86 87 75 78 78 83 94 88 93 94 92 92 94 97 98 90 84 77 71
89 86 86 86 87 87 90 91 87 88 88 85 89 91 92 89 88 87 88 86 82 82 78 76 76 75 84 76 82 91 91 92 93 91 89 90 84 78
84 81 84 86 86 87 84 88 86 89 87 88 88 87 91 90 86 86 86 82 80 80 80 79 74 71 76 75 78 83 89 86 82 80 87 90 85 86

GFSNE_sfc_rhum_024.txt.gz
RH
77 78 76 80 84 87 84 84 89 80 56 39 36 32 29 32 39 37 40 52 68 73 77 74 62 55 55 63 68 68 69 75 80 79 70 74 74 75
68 72 70 66 65 62 63 58 56 52 47 32 28 28 28 22 33 36 37 56 59 75 75 73 69 62 68 71 66 65 63 64 71 81 81 74 72 70
55 52 48 42 39 37 37 38 40 38 40 34 28 30 34 37 35 37 38 38 38 70 72 72 73 79 81 76 73 69 66 63 65 72 78 81 70 70
44 43 41 30 40 40 37 41 40 37 38 43 35 33 36 36 38 41 34 28 32 42 73 71 76 82 79 77 75 74 74 72 76 77 80 87 80 70
42 42 42 43 46 43 42 40 38 31 36 38 38 34 34 33 36 37 38 39 31 47 63 72 72 71 70 70 72 74 74 78 79 82 85 89 90 84
46 46 45 47 48 46 42 43 38 40 40 40 39 38 36 36 37 40 43 39 40 30 42 52 58 61 70 75 79 80 81 78 79 83 87 90 96 97
44 42 45 49 59 60 51 49 46 44 42 47 57 53 49 47 48 46 50 49 51 47 51 51 50 46 47 66 62 66 73 77 81 83 87 91 95 99
46 44 43 54 50 68 70 73 69 65 67 69 65 66 59 55 51 55 60 65 73 58 62 65 62 63 50 44 59 72 77 86 89 85 88 90 91 94
49 46 40 34 56 54 66 72 74 77 81 70 75 66 61 56 55 63 67 69 64 52 64 81 76 71 68 53 70 76 83 85 86 88 88 86 91 94
50 47 50 59 61 67 71 71 71 65 66 65 70 60 57 61 62 61 64 66 67 60 65 86 79 81 69 70 70 74 80 78 79 81 92 91 95 96
58 60 62 69 70 81 86 89 71 64 55 66 70 75 76 75 74 74 90 83 89 69 64 71 76 81 70 80 78 71 75 77 80 84 84 93 95 95
69 63 70 69 83 89 94 96 90 65 62 68 67 68 70 72 82 82 83 87 82 78 58 70 70 65 80 74 71 80 80 82 82 84 82 88 93 92
72 68 66 95 86 77 76 80 79 80 77 76 76 79 79 73 69 70 74 87 84 78 51 60 68 58 63 67 70 75 76 84 83 83 85 88 85 90
83 78 84 88 79 76 76 79 81 85 89 90 87 82 79 74 72 74 74 76 74 70 55 87 78 55 63 70 70 63 72 77 91 98 98 91 89 85
85 84 92 85 81 78 77 76 84 90 86 87 84 75 75 69 72 73 79 80 80 81 78 82 92 61 75 71 67 72 82 81 89 99 100 98 94 94
85 86 88 90 90 88 80 76 86 83 84 85 79 77 76 80 81 74 78 78 87 78 94 94 99 87 85 77 68 76 88 91 98 100 100 100 99 84
91 89 84 83 83 76 74 73 73 75 82 83 84 86 81 78 84 76 78 75 86 75 69 81 100 100 94 89 94 77 74 75 77 89 98 94 89 87
85 87 91 92 88 77 77 77 81 81 77 78 85 83 85 88 84 90 86 79 84 75 68 72 85 98 99 99 94 73 87 84 79 87 86 88 78 87
86 86 91 92 90 80 77 78 81 80 80 76 79 79 81 82 86 87 88 92 89 82 77 82 86 86 86 89 93 94 90 82 96 97 90 89 83 89
81 86 89 89 86 79 77 79 78 81 80 78 82 84 84 83 83 81 82 88 89 78 74 76 82 92 94 96 98 95 86 97 100 94 86 91 93 84
79 80 85 83 79 75 83 84 87 86 84 86 84 83 88 85 80 78 82 88 84 83 79 77 78 91 87 98 99 94 90 88 95 100 96 92 88 90
80 76 72 74 80 80 84 84 78 83 83 82 86 89 90 88 82 81 84 85 83 84 77 71 67 67 79 80 90 95 91 93 93 94 95 95 95 92
74 70 74 76 78 80 77 81 76 81 81 82 84 84 90 89 82 81 85 84 81 80 75 72 65 62 70 72 81 85 92 91 91 88 91 86 85 85

GFSNE_sfc_rhum_027.txt.gz
RH
82 88 86 83 83 85 85 84 95 87 64 48 55 55 69 57 46 43 44 57 71 71 74 74 67 64 61 58 56 58 63 64 64 71 75 78 71 71
87 84 76 70 68 65 64 67 74 82 80 46 41 41 38 27 34 35 36 58 64 75 77 77 76 70 65 62 59 64 66 64 63 63 69 72 80 74
57 59 55 50 45 41 43 50 54 54 57 46 36 37 41 41 35 39 38 41 43 66 66 72 74 72 70 71 73 79 71 65 63 62 61 65 68 76
49 48 39 28 40 40 38 39 39 37 40 46 38 38 41 40 42 45 32 26 35 43 76 73 72 72 76 77 85 80 77 74 72 67 62 62 66 67
39 39 38 40 43 41 41 41 39 31 38 39 40 36 37 36 39 40 40 42 30 46 64 80 77 74 75 83 82 80 77 74 74 75 75 76 75 72
41 41 41 43 44 43 40 42 38 40 40 42 42 40 38 37 39 42 44 41 40 27 38 48 57 63 68 68 72 75 77 76 77 79 84 84 84 82
42 37 40 47 59 56 43 46 47 48 47 45 45 44 42 43 47 45 49 50 52 48 51 51 50 50 53 68 61 67 70 74 81 83 77 79 82 86
45 42 40 50 48 68 71 72 66 59 62 66 63 60 57 57 59 60 62 69 83 66 68 68 59 61 53 50 61 72 74 78 77 79 81 85 91 93
49 48 42 33 50 43 62 73 75 82 83 69 74 66 61 56 56 63 68 69 68 63 66 79 76 78 71 47 69 71 74 76 85 88 88 88 89 88
54 51 49 51 54 62 65 66 65 63 66 63 69 61 61 61 69 64 69 70 74 67 64 82 78 81 76 74 71 73 73 74 80 83 83 82 86 90
54 60 62 66 68 70 90 92 71 69 58 73 78 76 72 74 74 72 83 89 93 79 70 73 76 80 77 80 79 72 75 77 77 79 78 80 81 91
64 58 66 66 77 87 93 89 86 74 74 66 67 64 66 70 82 80 80 82 78 79 66 74 77 65 86 79 75 78 80 77 78 80 81 82 84 84
74 75 71 92 92 80 81 84 84 84 74 72 74 74 74 77 80 77 82 85 85 78 62 65 89 72 67 76 70 80 83 90 89 88 84 83 83 84
81 76 88 78 82 84 85 83 91 82 85 92 90 83 90 94 80 84 89 85 80 80 74 91 95 71 70 80 71 70 74 81 85 95 99 88 85 86
83 88 79 93 87 89 92 87 86 89 93 90 84 77 72 71 75 73 71 69 88 82 72 79 99 86 81 91 69 72 80 83 94 92 100 99 97 89
82 83 93 94 92 93 92 87 90 93 87 89 88 80 79 82 86 69 74 82 86 76 82 80 83 83 88 77 70 78 77 86 93 93 100 100 100 96
90 91 86 84 86 86 83 80 84 78 86 86 88 86 81 75 92 87 82 77 78 75 70 81 91 91 84 80 86 79 82 82 77 92 100 99 100 99
86 89 91 92 91 87 88 85 80 81 78 81 84 85 84 82 82 85 88 90 83 76 70 67 97 90 97 97 92 81 77 92 85 87 99 88 80 90
86 87 92 92 92 87 86 84 83 83 81 77 82 84 86 84 91 84 84 85 91 94 83 80 98 99 93 92 94 96 92 84 93 93 98 88 86 85
80 86 89 90 88 72 72 76 80 84 86 85 87 86 89 87 88 87 87 87 80 78 82 85 83 83 88 95 96 94 96 96 96 92 99 90 94 94
77 80 85 83 74 74 83 83 85 88 88 91 88 87 90 89 83 83 88 82 81 75 80 75 74 84 81 95 99 95 94 90 95 97 99 99 92 90
72 67 66 68 76 77 82 85 84 83 84 85 90 91 89 87 85 85 87 87 79 78 80 80 68 66 78 79 83 90 90 90 94 95 94 96 94 95
74 69 71 73 74 75 72 79 77 83 79 80 83 83 91 90 82 83 82 80 77 78 74 76 75 67 70 75 83 80 85 90 94 85 92 97 97 97

GFSNE_sfc_rhum_030.txt.gz
RH
95 93 93 91 94 95 93 94 98 97 84 64 75 72 91 89 86 83 63 74 75 75 77 75 72 67 65 62 60 58 56 55 60 64 64 70 73 77
92 89 85 81 81 86 86 90 87 91 90 64 57 53 45 38 62 65 57 67 79 78 77 78 77 74 71 71 68 61 56 53 59 62 62 63 67 69
74 71 70 66 64 64 66 73 79 81 95 76 59 48 45 44 40 50 55 54 61 77 76 76 75 74 76 76 74 70 66 62 64 64 62 61 61 62
58 58 56 39 58 59 61 60 60 56 59 58 56 55 50 49 52 55 41 32 46 53 74 75 74 75 74 78 78 77 76 80 80 72 65 61 59 58
53 54 53 54 58 63 60 58 58 46 55 56 56 57 57 54 50 52 53 56 42 52 63 80 80 79 78 76 77 77 80 82 80 77 76 72 67 60
57 56 54 53 56 60 59 65 52 58 58 60 58 57 59 54 55 58 67 64 60 36 45 53 72 74 77 77 79 82 82 81 80 78 77 81 81 76
58 52 53 57 60 64 49 61 64 69 71 68 68 70 69 69 73 74 77 78 79 76 76 72 69 71 72 78 74 76 77 78 78 78 80 82 86 84
62 58 57 61 56 66 73 77 81 86 80 76 72 75 71 68 70 80 85 89 90 83 89 92 82 82 72 73 67 74 68 71 76 83 79 82 84 82
67 65 60 47 64 60 68 71 77 80 85 86 91 80 77 71 70 74 80 81 82 79 84 86 95 92 88 62 73 74 75 75 76 79 84 88 89 91
71 65 66 74 73 74 75 82 85 75 72 70 91 87 74 72 79 87 96 97 97 94 83 91 92 89 94 92 78 76 75 76 78 81 82 85 86 85
68 71 71 72 70 72 85 88 87 83 66 72 93 89 88 85 84 82 91 91 88 82 85 94 90 88 90 89 91 77 78 76 75 76 78 83 86 86
76 72 71 73 85 94 96 97 95 85 79 85 83 75 70 71 75 81 90 96 92 91 79 81 77 95 94 91 85 92 94 82 81 80 80 79 80 88
82 79 77 81 91 77 80 91 90 86 92 89 84 82 82 82 82 81 85 95 96 92 74 78 93 96 95 90 93 96 95 92 92 92 83 82 82 85
88 84 94 77 84 87 87 89 92 95 94 94 94 95 94 94 94 97 98 98 98 97 82 95 99 95 94 94 92 95 94 95 95 97 97 93 90 87
83 87 83 91 92 94 92 95 96 97 96 98 96 97 92 90 90 91 91 87 91 93 94 92 95 89 98 95 98 96 92 95 96 96 98 97 99 98
84 86 93 93 87 93 95 95 95 98 97 97 97 96 96 95 94 98 96 95 96 97 93 90 92 93 92 96 94 91 94 95 99 99 99 100 100 99
88 93 93 90 91 90 91 87 93 92 94 94 95 94 89 90 93 93 96 98 98 96 95 96 94 93 96 94 97 94 95 96 96 98 99 92 91 98
91 95 95 95 95 94 95 94 93 96 94 92 93 91 94 92 93 92 94 95 94 98 96 95 99 99 95 91 92 92 95 97 99 98 99 99 96 98
94 94 96 96 95 94 92 92 95 95 91 90 95 94 93 92 96 95 92 94 95 95 93 100 98 96 97 97 99 98 98 95 99 100 99 99 97 98
90 94 95 95 94 82 83 86 87 93 90 91 94 95 94 96 96 94 94 96 94 95 96 95 96 96 98 99 99 99 94 98 99 99 99 100 99 98
84 92 95 93 86 85 90 89 90 90 90 90 92 93 95 97 95 95 94 95 94 89 94 96 94 87 94 97 99 99 99 87 95 99 99 99 98 99
88 82 81 84 88 87 89 90 88 88 88 88 88 90 94 95 95 96 94 96 95 94 92 92 91 92 93 96 98 98 99 99 94 96 97 97 98 97
94 88 88 88 87 86 85 88 87 89 88 89 90 90 91 89 91 95 93 91 94 92 90 88 95 94 93 92 98 96 94 97 98 97 97 96 97 95

GFSNE_sfc_rhum_033.txt.gz
RH
96 95 96 95 94 92 95 97 99 98 88 75 79 75 81 92 88 88 91 90 91 88 81 74 72 69 66 59 57 58 56 55 54 55 60 64 65 69
95 96 95 95 94 91 80 89 92 94 93 80 69 71 61 46 73 83 83 74 77 89 86 80 76 73 72 72 71 65 59 56 53 51 56 61 61 63
82 77 75 71 79 81 79 78 87 88 94 78 82 72 72 65 52 61 66 71 66 83 83 78 79 80 78 77 77 76 73 65 58 55 54 60 59 58
66 68 65 49 69 71 74 72 73 71 74 72 70 66 59 56 60 58 47 36 48 64 80 76 78 81 80 81 82 81 79 76 74 71 66 63 62 61
65 66 67 64 65 66 64 70 75 56 69 73 70 70 68 63 56 55 56 57 43 56 64 79 82 81 82 82 81 81 79 80 81 82 83 80 71 64
71 70 68 68 68 70 68 69 61 70 71 74 79 77 76 72 73 79 79 76 74 50 62 68 71 68 78 84 85 82 83 82 82 84 84 85 84 78
75 65 64 66 65 70 66 79 75 78 81 83 83 82 80 81 75 83 85 86 83 81 81 80 78 76 73 72 79 82 83 84 83 84 86 86 84 84
76 74 74 66 66 71 73 74 77 87 92 91 88 88 81 78 78 89 91 93 92 89 91 94 89 88 82 80 72 80 80 82 81 83 84 86 87 88
81 80 65 51 71 76 77 79 78 78 84 81 91 91 90 83 77 84 90 92 86 87 91 90 97 93 89 69 77 78 79 80 79 79 79 80 84 88
82 79 76 79 81 76 76 86 88 90 89 79 86 88 87 83 84 80 89 96 98 97 95 90 87 90 93 94 81 79 79 79 80 81 81 80 81 84
82 82 76 77 75 73 95 98 93 92 76 74 75 74 82 90 98 98 98 97 90 85 94 91 87 92 95 94 94 80 80 78 80 80 79 82 83 84
89 77 76 72 80 92 94 98 97 88 86 87 89 82 76 78 79 83 86 94 90 94 81 92 89 92 98 97 91 89 92 85 82 82 82 81 81 90
87 83 79 76 79 84 91 97 94 90 94 95 91 87 86 90 89 89 98 97 96 95 83 94 98 97 97 96 92 92 97 95 94 90 85 85 84 85
89 86 90 89 93 90 91 94 96 97 97 96 96 95 95 97 97 95 94 95 96 97 90 95 98 91 93 97 96 96 96 96 98 95 95 91 92 90
86 86 91 91 82 92 93 91 96 97 98 98 97 98 96 98 99 99 98 98 94 94 93 95 96 98 98 91 96 98 96 95 98 98 99 99 98 99
90 89 96 86 88 94 94 92 95 96 96 96 96 96 95 97 98 92 98 95 98 96 93 95 96 96 92 88 84 92 97 94 98 99 97 97 97 98
92 93 91 89 90 90 91 92 93 90 94 95 96 95 92 91 92 94 98 98 98 96 97 94 97 94 93 94 97 93 96 96 95 96 97 93 87 92
89 95 96 95 95 94 94 93 91 93 94 94 96 94 96 95 96 96 98 98 99 97 98 98 97 96 99 99 99 93 98 97 97 97 99 98 93 96
92 95 96 96 95 92 89 89 93 95 93 94 95 95 95 95 97 98 96 98 98 99 98 97 97 98 98 99 99 89 100 99 99 99 97 98 96 92
90 95 96 96 94 88 89 91 92 92 91 91 94 94 94 96 96 97 98 99 98 99 98 97 97 98 98 98 98 99 88 99 100 99 99 99 99 99
96 88 93 94 92 91 94 94 95 94 93 94 93 93 94 95 94 96 96 97 98 94 93 96 95 93 96 97 98 99 98 87 91 99 99 100 98 98
98 97 91 92 95 93 95 95 92 92 92 93 94 94 94 94 95 95 97 96 97 98 96 89 89 92 96 98 99 100 100 98 94 90 94 98 98 98
98 97 98 97 97 93 93 94 95 95 93 94 95 95 94 96 91 93 94 94 94 98 93 93 92 97 98 97 99 98 97 100 99 98 97 96 97 97